Stations météo

réclame
Mon MeteoGroup
Leutkirch-Herlazhofen, Allemagne (10945): Température de l'air & dewpoint: 19.09.2018 09:00:00 - 25.09.2018 09:00:00 (CEST)Leutkirch-Herlazhofen, Allemagne (10945): Température de l'air 5cm & Température de l'air -5cm: 19.09.2018 09:00:00 - 25.09.2018 09:00:00 (CEST)Leutkirch-Herlazhofen, Allemagne (10945): Température de l'air -20cm & Température de l'air -100cm: 19.09.2018 09:00:00 - 25.09.2018 09:00:00 (CEST)Leutkirch-Herlazhofen, Allemagne (10945): Vitesse du vent & gusts: 19.09.2018 09:00:00 - 25.09.2018 09:00:00 (CEST)Leutkirch-Herlazhofen, Allemagne (10945): Direction du vent: 19.09.2018 09:00:00 - 25.09.2018 09:00:00 (CEST)Leutkirch-Herlazhofen, Allemagne (10945): reduced air pressure: 19.09.2018 09:00:00 - 25.09.2018 09:00:00 (CEST)Leutkirch-Herlazhofen, Allemagne (10945): visibility: 19.09.2018 09:00:00 - 25.09.2018 09:00:00 (CEST)Leutkirch-Herlazhofen, Allemagne (10945): Ensoleillement: 19.09.2018 09:00:00 - 25.09.2018 09:00:00 (CEST)Leutkirch-Herlazhofen, Allemagne (10945): Quantités de précipitations: 19.09.2018 09:00:00 - 25.09.2018 09:00:00 (CEST)
Date & Time tt [°C] td [°C] tt 5cm [°C] tt -5cm [°C] tt -20cm [°C] tt -100cm [°C] ff [km/h] ff [knt] fx [km/h] fx [knt] dd ppp [hPa] vv [km] sd [min] rr [mm]
25.09.2018 09:00:00 4,1 1,5 5,7 5,7 11,9 16,9 8 5 16 8 NE 1038,3 24 60 0,0
25.09.2018 08:00:00 1,9 0,6 -0,1 5,0 12,2 16,9 3 1 7 4 N 1038,4 31 23 0,0
25.09.2018 07:00:00 -0,4 -0,8 -2,8 5,3 12,5 16,9 0 0 4 2 N 1038,7 17 0 0,0
25.09.2018 06:00:00 -0,4 -0,9 -2,1 5,7 12,8 16,9 3 1 5 3 SW 1038,9 28 0 0,0
25.09.2018 05:00:00 -0,8 -1,5 -2,6 6,1 13,2 16,9 4 2 4 2 SW 1039,0 38 0 0,0
25.09.2018 04:00:00 0,6 0,4 -2,1 6,5 13,5 16,9 3 2 4 2 ESE 1038,7 24 0 0,0
25.09.2018 03:00:00 0,9 0,6 -1,6 7,1 13,9 16,9 2 1 4 2 SE 1038,7 22 0 0,0
25.09.2018 02:00:00 0,8 0,4 -1,2 7,6 14,3 16,9 2 1 6 3 E 1038,5 32 0 0,0
25.09.2018 01:00:00 0,5 -0,3 -0,2 8,2 14,6 16,9 0 0 3 2 N 1038,4 58 0 0,0
25.09.2018 00:00:00 1,7 1,3 -0,4 8,9 15,0 16,9 0 0 3 2 N 1038,2 23 0 0,0
24.09.2018 23:00:00 2,4 1,9 -0,2 9,7 15,4 16,9 2 1 4 2 SSE 1037,7 32 0 0,0
24.09.2018 22:00:00 2,9 1,9 0,6 10,7 15,7 16,9 3 1 5 3 S 1037,0 47 0 0,0
24.09.2018 21:00:00 4,3 2,9 2,0 11,9 15,9 16,9 3 2 5 3 SSE 1036,4 55 0 0,0
24.09.2018 20:00:00 5,7 3,3 3,5 13,5 16,1 17,0 4 2 6 3 S 1035,4 70 0 0,0
24.09.2018 19:00:00 10,0 -0,3 8,7 15,1 16,1 17,0 4 2 10 5 N 1033,5 70 60 0,0
24.09.2018 18:00:00 10,5 -0,5 12,3 16,2 16,0 17,0 8 4 16 8 NNE 1032,9 56 54 0,0
24.09.2018 17:00:00 9,9 -0,8 10,4 17,5 15,8 17,0 12 6 22 12 N 1032,9 70 45 0,0
24.09.2018 16:00:00 11,1 0,4 15,0 18,1 15,5 17,0 9 5 20 11 E 1032,5 35 43 0,0
24.09.2018 15:00:00 10,3 1,7 12,9 18,5 15,2 17,0 8 4 20 11 N 1032,9 70 47 0,0
24.09.2018 14:00:00 10,5 -0,3 14,6 17,4 14,8 17,0 9 5 19 10 NNW 1033,2 43 50 0,0
24.09.2018 13:00:00 9,8 1,6 15,2 16,0 14,6 17,0 9 5 19 10 NNW 1033,5 33 48 0,0
24.09.2018 12:00:00 8,2 2,4 9,3 14,8 14,5 17,0 8 5 15 8 N 1034,0 70 29 0,0
24.09.2018 11:00:00 8,8 2,1 10,8 12,6 14,6 17,0 4 2 15 8 E 1033,3 70 27 0,0
24.09.2018 10:00:00 7,0 4,0 8,1 11,7 14,7 17,0 6 4 14 8 NNE 1033,4 70 0 0,0
24.09.2018 09:00:00 6,6 4,3 6,9 11,1 14,9 17,0 5 3 14 8 NNE 1032,4 70 0 0,0
24.09.2018 08:00:00 6,2 4,1 6,0 11,0 15,1 17,0 10 5 23 12 N 1030,9 70 0 0,0
24.09.2018 07:00:00 6,8 5,6 6,7 11,3 15,4 17,0 5 3 16 9 NNE 1029,2 14 0 0,4
24.09.2018 06:00:00 7,2 5,6 6,9 11,6 15,6 17,0 10 6 20 11 NNE 1028,0 6 0 0,0
24.09.2018 05:00:00 7,8 5,3 7,7 11,9 15,8 17,0 8 5 18 10 N 1027,0 50 0 0,0
24.09.2018 04:00:00 8,0 5,4 7,5 12,1 16,1 17,0 5 3 16 9 N 1026,0 70 0 0,0
24.09.2018 03:00:00 8,5 5,5 8,3 12,6 16,3 17,1 10 5 19 10 NW 1025,5 70 0 0,0
24.09.2018 02:00:00 9,1 6,5 8,8 13,0 16,6 17,1 6 3 22 12 NW 1023,8 70 0 0,0
24.09.2018 01:00:00 9,4 6,9 8,6 13,4 16,9 17,1 13 7 33 18 NW 1023,3 70 0 0,1
24.09.2018 00:00:00 10,0 8,6 9,9 14,0 17,1 17,1 18 10 56 30 NW 1021,6 70 0 5,5
23.09.2018 23:00:00 12,7 11,1 12,0 15,3 17,3 17,1 20 11 46 25 WSW 1016,7 23 0 2,9
23.09.2018 22:00:00 13,0 11,2 12,2 16,4 17,4 17,1 26 14 96 52 WNW 1014,3 3,1 0 3,9
23.09.2018 21:00:00 21,7 13,5 19,6 17,4 17,5 17,1 41 22 60 32 WSW 1008,3 70 0 0,0
23.09.2018 20:00:00 20,4 14,5 19,0 17,7 17,4 17,1 25 14 50 27 WSW 1008,3 70 1 0,0
23.09.2018 19:00:00 22,3 14,1 20,5 18,5 17,3 17,1 34 19 64 35 SW 1007,7 70 46 0,0
23.09.2018 18:00:00 22,4 14,8 22,0 19,4 17,1 17,1 27 15 47 26 SW 1008,3 70 36 0,0
23.09.2018 17:00:00 23,2 15,3 23,8 20,0 16,9 17,1 28 15 53 28 SW 1009,0 11 60 0,0
23.09.2018 16:00:00 23,1 14,9 23,8 19,8 16,6 17,1 33 18 64 34 WSW 1010,2 15 52 0,0
23.09.2018 15:00:00 22,0 14,3 21,6 19,5 16,3 17,1 38 21 61 33 WSW 1011,5 16 56 0,0
23.09.2018 14:00:00 20,6 14,3 20,8 18,7 16,0 17,1 33 18 59 32 WSW 1013,5 70 23 0,0
23.09.2018 13:00:00 19,7 13,5 20,5 18,5 15,7 17,1 35 19 49 26 SW 1014,8 22 57 0,0
23.09.2018 12:00:00 18,7 13,4 20,5 16,8 15,6 17,1 27 15 47 26 SW 1015,6 17 31 0,0
23.09.2018 11:00:00 16,3 12,1 16,8 15,4 15,5 17,1 20 11 31 17 SW 1017,0 70 0 0,0
23.09.2018 10:00:00 16,0 12,3 16,4 14,5 15,5 17,1 18 10 28 15 SW 1016,9 70 0 0,0
23.09.2018 09:00:00 14,5 12,1 14,4 13,9 15,5 17,2 16 9 27 15 SSW 1017,5 70 0 0,0
23.09.2018 08:00:00 14,0 11,6 13,5 13,6 15,6 17,2 14 8 26 14 SSW 1017,7 70 0 0,0
23.09.2018 07:00:00 13,9 11,5 13,2 13,5 15,7 17,2 13 7 22 12 SSW 1018,0 70 0 0,0
23.09.2018 06:00:00 13,3 11,3 12,6 13,3 15,8 17,2 16 9 36 19 SSW 1018,2 70 0 0,0
23.09.2018 05:00:00 11,8 11,0 11,5 13,1 15,9 17,2 23 12 37 20 SSW 1019,3 47 0 0,4
23.09.2018 04:00:00 11,0 10,3 10,7 13,1 16,1 17,2 17 9 24 13 SSW 1020,6 3,0 0 1,8
23.09.2018 03:00:00 11,0 10,2 10,6 13,3 16,3 17,2 16 9 29 16 SSW 1021,5 7 0 2,6
23.09.2018 02:00:00 10,8 9,8 10,4 13,7 16,4 17,2 19 10 27 15 WSW 1022,6 2,1 0 1,1
23.09.2018 01:00:00 11,8 10,0 11,0 14,0 16,5 17,2 8 4 22 12 WSW 1021,9 19 0 0,6
23.09.2018 00:00:00 11,6 10,2 11,1 14,2 16,7 17,2 6 3 10 5 SW 1021,8 34 0 0,2
22.09.2018 23:00:00 11,6 10,0 11,0 14,3 16,8 17,2 5 3 12 7 S 1021,4 35 0 0,4
22.09.2018 22:00:00 12,0 9,2 11,5 14,6 17,0 17,2 4 2 11 6 S 1021,8 68 0 0,0
22.09.2018 21:00:00 12,1 9,0 11,2 14,9 17,1 17,2 9 5 11 6 S 1021,7 69 0 0,1
22.09.2018 20:00:00 12,7 7,5 12,0 15,4 17,3 17,2 6 4 14 7 SW 1021,1 70 0 0,0
22.09.2018 19:00:00 13,2 6,7 12,4 16,2 17,3 17,2 8 4 19 11 SSW 1020,8 70 8 0,0
22.09.2018 18:00:00 14,5 6,2 14,5 17,4 17,2 17,2 15 8 25 13 WSW 1021,0 70 49 0,0
22.09.2018 17:00:00 15,1 6,0 16,3 18,5 17,0 17,2 15 8 26 14 SW 1021,1 52 60 0,0
22.09.2018 16:00:00 14,7 5,8 16,2 19,4 16,7 17,2 14 7 24 13 SW 1021,6 41 60 0,0
22.09.2018 15:00:00 15,1 7,4 18,3 19,1 16,4 17,2 10 6 18 10 SSW 1021,7 24 52 0,0
22.09.2018 14:00:00 13,5 6,2 16,0 17,6 16,2 17,2 10 6 18 10 SW 1023,0 55 33 0,0
22.09.2018 13:00:00 13,0 6,7 14,9 17,0 16,0 17,2 9 5 16 9 SW 1023,9 70 21 0,0
22.09.2018 12:00:00 12,3 7,6 14,8 16,0 15,9 17,2 10 6 16 8 SSW 1024,4 58 25 0,0
22.09.2018 11:00:00 11,7 8,0 13,8 14,8 15,9 17,2 9 5 14 8 WSW 1025,1 62 23 0,0
22.09.2018 10:00:00 11,1 7,7 11,9 13,4 16,1 17,2 3 1 9 5 SSE 1025,3 70 48 0,0
22.09.2018 09:00:00 9,6 7,5 9,7 12,0 16,3 17,2 6 3 13 7 S 1025,1 40 29 0,0
22.09.2018 08:00:00 8,0 7,2 7,3 11,7 16,6 17,2 12 6 17 9 S 1025,3 28 0 0,0
22.09.2018 07:00:00 8,0 7,3 6,5 12,2 16,8 17,2 5 3 11 6 SSW 1026,0 20 0 0,0
22.09.2018 06:00:00 9,1 8,3 8,1 12,8 17,1 17,2 9 5 13 7 SSW 1024,9 27 0 0,0
22.09.2018 05:00:00 9,6 8,7 8,8 13,3 17,3 17,2 8 4 16 9 SW 1024,8 33 0 0,0
22.09.2018 04:00:00 10,2 8,8 9,8 13,7 17,6 17,2 12 7 17 9 WSW 1024,4 49 0 0,0
22.09.2018 03:00:00 10,4 9,2 9,9 14,1 17,9 17,2 12 7 18 10 SW 1023,7 53 0 0,0
22.09.2018 02:00:00 10,4 9,2 10,0 14,4 18,2 17,2 11 6 16 9 SSW 1023,6 70 0 0,0
22.09.2018 01:00:00 10,1 8,4 9,3 14,9 18,5 17,2 9 5 17 9 SSW 1022,8 64 0 0,0
22.09.2018 00:00:00 10,6 8,8 10,1 15,5 18,7 17,2 10 5 18 10 SSW 1022,6 70 0 0,2
21.09.2018 23:00:00 11,9 9,0 11,1 16,2 19,0 17,2 13 7 24 13 W 1021,5 70 0 1,0
21.09.2018 22:00:00 12,7 11,4 12,3 17,1 19,2 17,2 12 6 31 17 WNW 1019,3 6 0 2,4
21.09.2018 21:00:00 13,6 12,1 13,2 18,4 19,4 17,2 25 14 38 20 NW 1017,8 4,3 0 2,5
21.09.2018 20:00:00 16,9 14,6 15,6 19,2 19,5 17,2 14 8 26 14 SSW 1014,2 23 0 0,7
21.09.2018 19:00:00 17,9 13,9 15,6 20,5 19,5 17,2 18 10 33 18 WSW 1013,3 21 0 0,3
21.09.2018 18:00:00 21,7 13,2 20,6 21,9 19,3 17,2 17 9 26 14 W 1011,2 53 0 0,0
21.09.2018 17:00:00 21,9 14,0 21,2 22,8 19,1 17,2 9 5 21 11 WSW 1010,6 50 6 0,0
21.09.2018 16:00:00 22,9 13,1 23,4 23,4 18,7 17,2 16 8 34 19 SW 1010,4 61 6 0,0
21.09.2018 15:00:00 23,1 12,8 23,8 24,0 18,2 17,2 16 9 47 26 SW 1011,1 51 27 0,0
21.09.2018 14:00:00 24,2 13,1 26,3 23,8 17,7 17,2 28 15 43 23 WSW 1011,5 14 60 0,0
21.09.2018 13:00:00 23,9 12,2 26,7 22,7 17,3 17,2 23 12 40 21 WSW 1012,1 16 55 0,0
21.09.2018 12:00:00 22,3 11,4 23,0 21,0 16,9 17,2 17 9 26 14 WSW 1012,7 47 56 0,0
21.09.2018 11:00:00 22,3 11,9 24,3 18,4 16,8 17,2 16 8 24 13 SW 1013,1 33 60 0,0
21.09.2018 10:00:00 20,2 12,2 21,6 16,0 16,8 17,2 10 5 16 9 SW 1013,7 35 60 0,0
21.09.2018 09:00:00 17,0 12,4 16,1 13,8 17,0 17,1 5 3 9 5 S 1014,6 43 60 0,0
21.09.2018 08:00:00 11,2 9,6 10,2 12,8 17,2 17,1 6 3 8 4 ESE 1016,2 23 26 0,0
21.09.2018 07:00:00 10,0 9,0 7,6 13,0 17,5 17,1 5 3 8 4 ESE 1016,3 18 0 0,0
21.09.2018 06:00:00 10,9 9,7 7,9 13,3 17,8 17,1 3 2 7 4 ESE 1016,3 21 0 0,0
21.09.2018 05:00:00 10,4 9,6 7,4 13,7 18,1 17,1 5 3 8 4 SSE 1016,8 19 0 0,0
21.09.2018 04:00:00 10,5 10,0 7,4 14,2 18,4 17,1 5 3 8 4 SE 1017,1 17 0 0,0
21.09.2018 03:00:00 11,0 10,0 8,3 14,7 18,8 17,1 5 3 5 3 S 1017,0 23 0 0,0
21.09.2018 02:00:00 11,6 10,2 8,1 15,3 19,1 17,1 0 0 10 6 N 1017,4 29 0 0,0
21.09.2018 01:00:00 12,1 10,5 8,6 15,9 19,4 17,1 4 2 10 6 S 1017,6 33 0 0,0
21.09.2018 00:00:00 12,9 10,6 9,2 16,6 19,8 17,1 5 3 11 6 SE 1017,8 43 0 0,0
20.09.2018 23:00:00 12,5 10,7 9,1 17,5 20,1 17,1 0 0 6 3 N 1018,3 33 0 0,0
20.09.2018 22:00:00 13,4 11,5 10,3 18,6 20,4 17,1 3 1 5 3 ESE 1018,3 40 0 0,0
20.09.2018 21:00:00 14,1 11,8 11,4 20,1 20,6 17,1 5 3 5 3 E 1018,2 39 0 0,0
20.09.2018 20:00:00 16,4 11,9 13,0 22,1 20,6 17,1 4 2 5 3 SSE 1017,4 55 13 0,0
20.09.2018 19:00:00 21,8 12,9 20,1 24,5 20,4 17,1 3 1 5 3 SE 1016,0 24 60 0,0
20.09.2018 18:00:00 26,4 12,9 26,6 26,1 20,0 17,1 2 1 7 4 SSW 1015,2 70 60 0,0
20.09.2018 17:00:00 26,1 8,7 28,7 27,1 19,5 17,1 4 2 11 6 WNW 1015,9 70 60 0,0
20.09.2018 16:00:00 25,1 10,5 28,2 27,5 18,8 17,1 7 4 11 6 WNW 1016,6 21 60 0,0
20.09.2018 15:00:00 25,0 7,8 30,2 26,9 18,2 17,1 3 2 9 5 N 1017,2 42 60 0,0
20.09.2018 14:00:00 24,8 12,2 28,0 25,3 17,6 17,1 4 2 13 7 W 1017,9 17 60 0,0
20.09.2018 13:00:00 22,6 10,4 26,6 23,0 17,1 17,1 7 4 17 9 W 1019,1 16 60 0,0
20.09.2018 12:00:00 21,4 10,9 24,2 20,7 16,7 17,1 12 7 17 9 WSW 1020,0 15 60 0,0
20.09.2018 11:00:00 20,5 11,9 23,4 18,4 16,6 17,1 6 3 12 6 W 1020,7 12 60 0,0
20.09.2018 10:00:00 17,5 13,0 20,6 15,7 16,6 17,1 5 3 7 4 E 1021,3 28 60 0,0
20.09.2018 09:00:00 14,5 11,9 14,6 13,4 16,8 17,1 4 2 7 4 S 1022,2 26 60 0,0
20.09.2018 08:00:00 9,8 8,6 9,2 12,4 17,1 17,1 4 2 6 4 ESE 1023,5 14 27 0,0
20.09.2018 07:00:00 9,0 8,7 6,3 12,6 17,3 17,1 0 0 6 3 N 1023,4 4,7 0 0,0
20.09.2018 06:00:00 10,3 10,0 6,5 13,0 17,6 17,1 3 1 5 3 SSW 1023,0 21 0 0,0
20.09.2018 05:00:00 9,9 9,6 7,2 13,4 18,0 17,1 4 2 6 3 E 1023,0 16 0 0,0
20.09.2018 04:00:00 10,3 9,7 7,7 14,0 18,3 17,1 3 2 12 6 SSW 1023,1 21 0 0,0
20.09.2018 03:00:00 9,8 9,1 8,1 14,5 18,6 17,1 7 4 9 5 ESE 1023,3 15 0 0,0
20.09.2018 02:00:00 10,9 10,0 8,4 15,1 18,9 17,1 2 1 6 3 SSW 1023,0 20 0 0,0
20.09.2018 01:00:00 12,3 10,9 9,4 15,8 19,3 17,1 4 2 9 5 SSE 1022,6 33 0 0,0
20.09.2018 00:00:00 13,7 11,6 11,0 16,5 19,6 17,1 4 2 9 5 SSE 1022,5 41 0 0,0
19.09.2018 23:00:00 13,2 11,7 10,0 17,3 19,9 17,1 2 1 9 5 E 1022,8 35 0 0,0
19.09.2018 22:00:00 14,0 12,4 10,9 18,4 20,2 17,1 2 1 9 5 NNE 1022,4 38 0 0,0
19.09.2018 21:00:00 15,3 12,7 11,8 19,8 20,4 17,1 3 2 6 4 SSE 1021,8 49 0 0,0
19.09.2018 20:00:00 16,5 11,9 13,0 21,6 20,4 17,1 5 3 6 4 S 1021,0 54 10 0,0
19.09.2018 19:00:00 21,7 14,5 20,0 23,8 20,2 17,1 4 2 10 6 SSW 1019,3 70 60 0,0
19.09.2018 18:00:00 23,9 11,7 24,6 25,4 19,9 17,1 7 4 10 5 WNW 1018,6 70 60 0,0
19.09.2018 17:00:00 24,4 11,2 26,1 26,4 19,4 17,1 8 4 12 7 WSW 1018,6 69 60 0,0
19.09.2018 16:00:00 24,5 9,4 27,3 26,7 18,8 17,1 7 4 14 7 WNW 1018,8 53 60 0,0
19.09.2018 15:00:00 24,7 11,7 28,3 26,1 18,2 17,1 6 3 13 7 WSW 1019,0 28 60 0,0
19.09.2018 14:00:00 23,4 11,5 26,5 24,6 17,6 17,1 7 4 13 7 W 1019,6 31 60 0,0
19.09.2018 13:00:00 22,4 10,3 26,2 22,7 17,2 17,1 11 6 16 9 W 1020,1 22 60 0,0
19.09.2018 12:00:00 21,5 13,4 24,7 20,8 16,9 17,1 10 5 16 9 W 1020,7 53 60 0,0
19.09.2018 11:00:00 20,4 12,7 23,2 19,0 16,7 17,1 9 5 12 6 WSW 1021,0 48 60 0,0
19.09.2018 10:00:00 18,7 13,2 21,2 16,5 16,7 17,1 3 2 7 4 SW 1021,2 33 60 0,0
19.09.2018 09:00:00 15,7 12,1 15,9 14,1 16,8 17,1 4 2 6 4 SSE 1021,6 26 60 0,0

tt = Température de l'air
td = dewpoint
tt 5cm = Température de l'air 5cm
tt -5cm = Température de l'air -5cm
tt -20cm = Température de l'air -20cm
tt -100cm = Température de l'air -100cm
ff = Vitesse du vent
fx = gusts
dd = Direction du vent
ppp = reduced air pressure
vv = visibility
sd = Ensoleillement
rr = Quantités de précipitations

stations d'obs. à proximité